Biloxi, MS

7:09 AM CST on February 23, 2017 (GMT -0600)
Keesler Air Force Base

Weather History for KBIX - June, 2013

Change the Weather History Date:

Monday, June 17, 2013

  Actual Average Record
Temperature  
Mean Temperature 84 °F -  
Max Temperature 91 °F 88 °F 96 °F (1953)
Min Temperature 77 °F 73 °F 61 °F (1955)
Cooling Degree Days 18    
Growing Degree Days 34 (Base 50)    
Moisture  
Dew Point 75 °F    
Average Humidity 71    
Maximum Humidity 84    
Minimum Humidity 59    
Precipitation  
Precipitation 0.00 in - - ()
Sea Level Pressure  
Sea Level Pressure 29.99 in    
Wind  
Wind Speed 9 mph (SW)    
Max Wind Speed 17 mph    
Max Gust Speed 24 mph    
Visibility 10 miles    
Events      
Averages and records for this station are not official NWS values.
T = Trace of Precipitation, MM = Missing Value Source: NWS Daily Summary

Daily Weather History Graph

Daily Weather History Graph

Search for Another Location

Airport or City:

Trip Planner

Search our weather history database for the weather conditions in past years. The results will help you decide how hot, cold, wet, or windy it might be!

Date:

Astronomy

Jun. 17, 2013 Rise Set
Actual Time 5:53 AM CDT 7:59 PM CDT
Civil Twilight 5:25 AM CDT 8:27 PM CDT
Nautical Twilight 4:52 AM CDT 9:01 PM CDT
Astronomical Twilight 4:16 AM CDT 9:37 PM CDT
Moon 1:58 PM CDT (6/17) 1:06 AM CDT (6/17)
Length of Visible Light 15h 01m
Length of Day
14h 06m
First Quarter, 60% of the Moon is Illuminated
Jun 17
First Quarter
Jun 23
Full
Jun 29
Last Quarter
Jul 8
New
Jul 15
First Quarter

Hourly Weather History & Observations

Time (CDT) Temp. Heat Index Dew Point Humidity Pressure Visibility Wind Dir Wind Speed Gust Speed Precip Events Conditions
12:58 AM 83.8 °F 90.1 °F 73.2 °F 70% 30.01 in 10.0 mi WSW 9.2 mph - N/A   Partly Cloudy
1:58 AM 83.5 °F 90.0 °F 73.8 °F 72% 30.00 in 10.0 mi SW 15.0 mph - N/A   Partly Cloudy
2:58 AM 82.4 °F 89.0 °F 74.7 °F 77% 29.99 in 10.0 mi Variable 5.8 mph - N/A   Clear
3:58 AM 81.1 °F 86.2 °F 73.2 °F 77% 30.00 in 10.0 mi West 3.5 mph - N/A   Clear
4:58 AM 79.0 °F - 73.0 °F 82% 30.00 in 10.0 mi WSW 3.5 mph - N/A   Partly Cloudy
5:58 AM 77.9 °F - 72.9 °F 84% 30.00 in 10.0 mi WSW 2.3 mph - N/A   Clear
6:58 AM 80.6 °F 85.9 °F 74.5 °F 82% 30.00 in 10.0 mi West 3.5 mph - N/A   Clear
7:58 AM 84.2 °F 91.6 °F 74.5 °F 72% 30.01 in 10.0 mi Variable 3.5 mph - N/A   Clear
8:58 AM 86.2 °F 94.6 °F 74.7 °F 68% 30.02 in 10.0 mi West 6.9 mph - N/A   Clear
9:58 AM 86.7 °F 94.6 °F 73.6 °F 65% 30.04 in 10.0 mi WSW 6.9 mph - N/A   Mostly Cloudy
10:58 AM 89.1 °F 99.1 °F 74.8 °F 63% 30.04 in 10.0 mi WSW 8.1 mph - N/A   Partly Cloudy
11:58 AM 89.6 °F 99.3 °F 74.7 °F 61% 30.03 in 10.0 mi SSW 12.7 mph - N/A   Clear
12:58 PM 90.5 °F 100.3 °F 74.5 °F 59% 30.02 in 10.0 mi SW 15.0 mph - N/A   Partly Cloudy
1:58 PM 88.3 °F 98.4 °F 75.2 °F 65% 30.00 in 10.0 mi SW 17.3 mph - N/A   Scattered Clouds
2:58 PM 85.6 °F 93.8 °F 74.5 °F 69% 29.99 in 10.0 mi WSW 9.2 mph - N/A   Partly Cloudy
3:58 PM 86.5 °F 96.4 °F 75.6 °F 70% 29.97 in 10.0 mi WSW 8.1 mph - N/A   Clear
4:58 PM 89.1 °F 99.1 °F 75.2 °F 63% 29.96 in 10.0 mi SSW 11.5 mph - N/A   Partly Cloudy
5:58 PM 86.5 °F 96.4 °F 75.6 °F 70% 29.96 in 10.0 mi SSW 9.2 mph - N/A   Clear
6:58 PM 85.8 °F 95.5 °F 75.9 °F 72% 29.96 in 10.0 mi South 9.2 mph - N/A   Clear
7:58 PM 84.6 °F 92.8 °F 75.2 °F 73% 29.96 in 10.0 mi South 11.5 mph - N/A   Clear
8:58 PM 84.2 °F 92.3 °F 75.0 °F 74% 29.96 in 10.0 mi SSW 15.0 mph - N/A   Clear
9:58 PM 84.0 °F 91.9 °F 75.0 °F 74% 29.98 in 10.0 mi SSW 16.1 mph - N/A   Clear
10:58 PM 83.7 °F 91.0 °F 74.5 °F 74% 29.98 in 10.0 mi SW 17.3 mph 24.2 mph N/A   Partly Cloudy
11:58 PM 83.1 °F 90.4 °F 74.7 °F 76% 29.98 in 10.0 mi SW 13.8 mph - N/A   Partly Cloudy